Location: Canyam�s
(41.5996°N, 2.4450°E)
Time: 08:41:27
(UTC+00:00)

Okean 1-7 Rocket - Pass Details

Date: 06 June 2020
Orbit: 616 x 650 km, 82.5° (Epoch: 11 July)

Event Time Altitude Azimuth Distance (km) Brightness Sun altitude
Exits shadow 23:47:21 45° 282° (WNW) 877 4.3 -25.6°
Maximum altitude 23:47:21 45° 282° (WNW) 877 4.3 -25.6°
Drops below altitude 10° 23:51:44 10° 355° (N) 2,053 7.3 -25.6°
Sets 23:54:05 0° 2° (N) 2,971 8.4 -25.6°
